Terminal Aerodrome Forecast
Issued by NWS

Home | Current Version | Previous Version | Text Only | Print | Product List | Glossary On
Versions: 1 2 3 4 5 6 7 8 9 10 11 12 13 14 15 16 17 18 19 20 21 22 23 24 25 26 27 28 29 30 31 32 33 34 35 36 37 38 39 40 41 42 43 44 45 46 47 48 49 50
000
FTAK31 PANC 061957 AAA
TAFASN
TAF AMD
PASN 061957Z 0620/0718 12020G28KT 6SM BR FEW007 SCT015 BKN035
      TEMPO 0622/0701 4SM -RA BR SCT007 BKN015
     FM070100 13015KT 2SM -RA BR OVC004
     FM070900 17012KT 2SM BR OVC002=

USA.gov is the U.S. government's official web portal to all federal, state and local government web resources and services.